This is the latest recevied weather packets stored in our database for station/object WX2NJ. If no packets are shown the sender has not sent any weather packets the latest 10 day(s).
| Time | Temp. | Humidity | Pressure | Rain* | Wind** | Luminosity | Snow |
|---|---|---|---|---|---|---|---|
| 1778017747 | 23.33° C | 49% | 1013.3 hPa | 0 mm | - | 106 W/m² | - |
| 1778017444 | 23.33° C | 49% | 1013.5 hPa | 0 mm | - | 93 W/m² | - |
| 1778017142 | 23.33° C | 48% | 1013.3 hPa | 0 mm | - | 135 W/m² | - |
| 1778016839 | 23.33° C | 48% | 1013.2 hPa | 0 mm | - | 179 W/m² | - |
| 1778016535 | 23.89° C | 47% | 1013.4 hPa | 0 mm | - | 220 W/m² | - |
| 1778016232 | 23.89° C | 46% | 1013.4 hPa | 0 mm | - | 164 W/m² | - |
| 1778015929 | 23.89° C | 45% | 1013.1 hPa | 0 mm | - | 187 W/m² | - |
| 1778015626 | 25° C | 44% | 1013.3 hPa | 0 mm | - | 138 W/m² | - |
| 1778015322 | 24.44° C | 46% | 1013.1 hPa | 0 mm | - | 97 W/m² | - |
| 1778015020 | 25° C | 46% | 1013.1 hPa | 0 mm | - | 180 W/m² | - |
| 1778014716 | 24.44° C | 47% | 1013.1 hPa | 0 mm | - | 358 W/m² | - |
| 1778014415 | 25° C | 46% | 1013 hPa | 0 mm | - | 374 W/m² | - |
| 1778014111 | 25° C | 46% | 1012.8 hPa | 0 mm | - | 376 W/m² | - |
| 1778013809 | 25° C | 47% | 1013.2 hPa | 0 mm | - | 404 W/m² | - |
| 1778013506 | 25° C | 47% | 1013.2 hPa | 0 mm | - | 418 W/m² | - |
| 1778013202 | 25° C | 47% | 1013 hPa | 0 mm | - | 420 W/m² | - |
| 1778012899 | 25° C | 46% | 1013.1 hPa | 0 mm | - | 448 W/m² | - |
| 1778012595 | 25° C | 47% | 1013 hPa | 0 mm | - | 427 W/m² | - |
| 1778012292 | 25.56° C | 46% | 1013.2 hPa | 0 mm | - | 476 W/m² | - |
| 1778011989 | 25.56° C | 48% | 1012.9 hPa | 0 mm | - | 445 W/m² | - |
| 1778011688 | 25.56° C | 47% | 1012.9 hPa | 0 mm | - | 405 W/m² | - |
| 1778011384 | 25° C | 50% | 1013.1 hPa | 0 mm | - | 546 W/m² | - |
| 1778011079 | 24.44° C | 52% | 1013.2 hPa | 0 mm | - | 561 W/m² | - |
| 1778010777 | 25° C | 51% | 1013 hPa | 0 mm | - | 515 W/m² | - |
| 1778010474 | 25° C | 51% | 1013.2 hPa | 0 mm | - | 544 W/m² | - |
* Rain latest hour (hover to see other rain measurements)
** Current wind speed in m/s (hover to see current wind gust speed)